TimeMDT,TemperatureF,Dew PointF,Humidity,Sea Level PressureIn,VisibilityMPH,Wind Direction,Wind SpeedMPH,Gust SpeedMPH,PrecipitationIn,Events,Conditions,WindDirDegrees,DateUTC
12:15 AM,37.4,28.4,70,30.25,10.0,East,4.6,-,N/A,,Clear,80,2012-10-29 06:15:00
12:35 AM,37.4,28.4,70,30.26,10.0,East,4.6,-,N/A,,Mostly Cloudy,80,2012-10-29 06:35:00
12:55 AM,37.4,28.4,70,30.26,10.0,Calm,Calm,-,N/A,,Scattered Clouds,0,2012-10-29 06:55:00
1:15 AM,35.6,28.4,75,30.26,10.0,Calm,Calm,-,N/A,,Clear,0,2012-10-29 07:15:00
1:35 AM,37.4,28.4,70,30.27,10.0,Calm,Calm,-,N/A,,Clear,0,2012-10-29 07:35:00
1:55 AM,35.6,26.6,70,30.27,10.0,Calm,Calm,-,N/A,,Clear,0,2012-10-29 07:55:00
2:15 AM,33.8,26.6,75,30.27,10.0,Calm,Calm,-,N/A,,Clear,0,2012-10-29 08:15:00
2:35 AM,33.8,26.6,75,30.28,10.0,Calm,Calm,-,N/A,,Clear,0,2012-10-29 08:35:00
2:55 AM,32.0,26.6,80,30.28,10.0,ESE,4.6,-,N/A,,Clear,110,2012-10-29 08:55:00
3:15 AM,33.8,26.6,75,30.28,10.0,SE,3.5,-,N/A,,Clear,130,2012-10-29 09:15:00
3:35 AM,32.0,26.6,80,30.28,10.0,Calm,Calm,-,N/A,,Clear,0,2012-10-29 09:35:00
3:55 AM,30.2,26.6,86,30.28,10.0,East,3.5,-,N/A,,Clear,80,2012-10-29 09:55:00
4:15 AM,30.2,26.6,86,30.28,10.0,ESE,3.5,-,N/A,,Clear,110,2012-10-29 10:15:00
4:55 AM,30.2,26.6,86,30.28,10.0,Calm,Calm,-,N/A,,Clear,0,2012-10-29 10:55:00
5:15 AM,28.4,26.6,93,30.29,10.0,Calm,Calm,-,N/A,,Clear,0,2012-10-29 11:15:00
5:35 AM,30.2,26.6,86,30.29,10.0,Calm,Calm,-,N/A,,Clear,0,2012-10-29 11:35:00
5:55 AM,28.4,26.6,93,30.29,10.0,Calm,Calm,-,N/A,,Clear,0,2012-10-29 11:55:00
6:15 AM,28.4,26.6,93,30.29,10.0,ESE,3.5,-,N/A,,Clear,110,2012-10-29 12:15:00
6:35 AM,28.4,26.6,93,30.29,10.0,Calm,Calm,-,N/A,,Clear,0,2012-10-29 12:35:00
6:50 AM,28.4,26.6,93,30.29,10.0,Calm,Calm,-,N/A,,Scattered Clouds,0,2012-10-29 12:50:00
7:50 AM,28.4,24.8,86,30.30,10.0,Calm,Calm,-,N/A,,Scattered Clouds,0,2012-10-29 13:50:00
8:50 AM,30.2,26.6,86,30.32,10.0,Calm,Calm,-,N/A,,Partly Cloudy,0,2012-10-29 14:50:00
9:50 AM,35.6,26.6,70,30.32,10.0,Calm,Calm,-,N/A,,Partly Cloudy,0,2012-10-29 15:50:00
10:50 AM,42.8,28.4,57,30.30,10.0,Calm,Calm,-,N/A,,Partly Cloudy,0,2012-10-29 16:50:00
11:50 AM,48.2,28.4,46,30.29,10.0,Calm,Calm,-,N/A,,Scattered Clouds,0,2012-10-29 17:50:00
12:55 PM,55.4,26.6,33,30.25,10.0,Calm,Calm,-,N/A,,Mostly Cloudy,0,2012-10-29 18:55:00
1:50 PM,60.8,24.8,25,30.21,10.0,SW,17.3,28.8,N/A,,Mostly Cloudy,230,2012-10-29 19:50:00
3:47 PM,62.6,21.2,20,30.19,10.0,SW,20.7,27.6,N/A,,Partly Cloudy,230,2012-10-29 21:47:00
4:47 PM,62.6,23.0,22,30.18,10.0,SW,20.7,26.5,N/A,,Partly Cloudy,230,2012-10-29 22:47:00
5:47 PM,60.8,24.8,25,30.19,10.0,SW,13.8,-,N/A,,Partly Cloudy,220,2012-10-29 23:47:00
6:47 PM,57.2,24.8,29,30.23,10.0,SW,11.5,-,N/A,,Clear,220,2012-10-30 00:47:00
7:15 PM,53.6,24.8,33,30.23,10.0,WNW,5.8,-,N/A,,Clear,300,2012-10-30 01:15:00
7:35 PM,51.8,24.8,35,30.24,10.0,West,5.8,-,N/A,,Clear,280,2012-10-30 01:35:00
7:55 PM,51.8,24.8,35,30.24,10.0,East,3.5,-,N/A,,Clear,100,2012-10-30 01:55:00
8:15 PM,48.2,26.6,43,30.24,10.0,East,6.9,-,N/A,,Clear,90,2012-10-30 02:15:00
8:35 PM,44.6,26.6,49,30.25,10.0,East,8.1,-,N/A,,Clear,90,2012-10-30 02:35:00
8:55 PM,44.6,26.6,49,30.25,10.0,East,6.9,-,N/A,,Clear,90,2012-10-30 02:55:00
9:15 PM,44.6,26.6,49,30.25,10.0,East,10.4,-,N/A,,Clear,80,2012-10-30 03:15:00
9:35 PM,41.0,26.6,57,30.26,10.0,East,8.1,-,N/A,,Clear,100,2012-10-30 03:35:00
9:55 PM,41.0,26.6,57,30.27,10.0,East,8.1,-,N/A,,Clear,90,2012-10-30 03:55:00
10:15 PM,39.2,26.6,61,30.27,10.0,East,5.8,-,N/A,,Clear,80,2012-10-30 04:15:00
10:35 PM,39.2,26.6,61,30.28,10.0,East,4.6,-,N/A,,Clear,90,2012-10-30 04:35:00
10:55 PM,39.2,26.6,61,30.27,10.0,Calm,Calm,-,N/A,,Clear,0,2012-10-30 04:55:00
11:15 PM,37.4,26.6,65,30.27,10.0,East,5.8,-,N/A,,Clear,100,2012-10-30 05:15:00
11:35 PM,37.4,26.6,65,30.28,10.0,East,5.8,-,N/A,,Clear,90,2012-10-30 05:35:00
11:55 PM,37.4,26.6,65,30.28,10.0,East,5.8,-,N/A,,Clear,90,2012-10-30 05:55:00